Xin Dan Dong — BPBY — position and weather

sailwx.info

Track history (hours):
 
Tides and Currents Weather Stations Pressure Air Temp Water Temp Dewpoint Dewpoint Depression Visibility Wind Speed Wind Dir Waves Ship Positions

Xin Dan Dong

Last reported at 2014-Jul-22 16:31 UTC. Time now 2014-Jul-22 23:34 UTC.
Position N 19°18' E 115°27'.

Length 263 m; draft 12.4 m.

Type: Cargo ship. MMSI: 413153000.

Date/timePositionNaut miles runAvg speedWind from/ knotsBaromVisibWave heightAir tempDewpointWater temp
2014-Jul-22 16:31N 19°18' E 115°27'23212.9
2014-Jul-21 22:32N 22°45' E 117°19'2912.0
2014-Jul-21 20:08N 23°10' E 117°34'1012.6
2014-Jul-21 19:22N 23°17' E 117°42'1313.0
2014-Jul-21 18:22N 23°26' E 117°52'1112.9
2014-Jul-21 17:33N 23°33' E 118°01'1312.9
2014-Jul-21 16:34N 23°41' E 118°11'1413.2
2014-Jul-21 15:32N 23°51' E 118°22'1313.7
2014-Jul-21 14:33N 24°00' E 118°32'1413.8
2014-Jul-21 13:33N 24°09' E 118°43'1413.7
2014-Jul-21 12:33N 24°19' E 118°54'1413.9
2014-Jul-21 11:32N 24°28' E 119°06'1313.5
2014-Jul-21 10:33N 24°37' E 119°17'30612.7
2014-Jul-20 10:30N 28°42' E 122°43'1212.8
2014-Jul-20 09:33N 28°54' E 122°47'1412.5
2014-Jul-20 08:24N 29°07' E 122°51'1112.4
2014-Jul-20 07:33N 29°18' E 122°54'1212.5
2014-Jul-20 06:33N 29°30' E 122°58'1312.5
2014-Jul-20 05:29N 29°42' E 123°03'1212.9
2014-Jul-20 04:33N 29°54' E 123°08'1312.9
2014-Jul-20 03:33N 30°06' E 123°11'1313.3
2014-Jul-20 02:33N 30°19' E 123°14'2713.3
2014-Jul-20 00:32N 30°46' E 123°14'36413.0
2014-Jul-18 20:33N 36°50' E 123°14'1414.0
2014-Jul-18 19:33N 37°04' E 123°13'1413.5
2014-Jul-18 18:33N 37°16' E 123°07'1313.2
2014-Jul-18 17:33N 37°27' E 122°58'1312.6
2014-Jul-18 16:33N 37°37' E 122°48'1212.2
2014-Jul-18 15:33N 37°48' E 122°40'1212.4
2014-Jul-18 14:33N 37°59' E 122°33'1312.5
2014-Jul-18 13:33N 38°09' E 122°24'1312.6
2014-Jul-18 12:33N 38°20' E 122°16'1312.8
2014-Jul-18 11:33N 38°31' E 122°08'1312.8
2014-Jul-18 10:33N 38°43' E 122°00'1312.6
2014-Jul-18 09:33N 38°55' E 121°57'3 0.1
2014-Jul-17 04:12N 38°58' E 121°56'6 9.0
2014-Jul-17 03:31N 38°52' E 121°58'1 0.4
2014-Jul-17 02:20N 38°52' E 121°58'0 0.1
2014-Jul-17 01:33N 38°52' E 121°58'0 0.0
2014-Jul-17 00:33N 38°52' E 121°58'0 0.1
2014-Jul-16 23:27N 38°52' E 121°58'0 0.1
2014-Jul-16 22:33N 38°51' E 121°58'0 0.2
2014-Jul-16 21:33N 38°51' E 121°58'0 0.1
2014-Jul-16 19:27N 38°51' E 121°58'0 0.0
2014-Jul-16 16:33N 38°51' E 121°58'0 0.1
2014-Jul-16 15:12N 38°51' E 121°58'0 0.3
2014-Jul-16 14:30N 38°52' E 121°58'0 0.1
2014-Jul-16 12:06N 38°52' E 121°58'0 0.1
2014-Jul-16 11:06N 38°52' E 121°58'0 0.1
2014-Jul-16 09:30N 38°51' E 121°58'0 0.0
2014-Jul-16 08:24N 38°51' E 121°58'0 0.0
2014-Jul-16 06:30N 38°51' E 121°58'0 0.0
2014-Jul-16 05:24N 38°51' E 121°58'0 0.0
2014-Jul-16 02:24N 38°51' E 121°58'0 0.1
2014-Jul-16 01:30N 38°52' E 121°58'0 0.2
2014-Jul-16 00:30N 38°52' E 121°58'0 0.0
2014-Jul-15 22:30N 38°52' E 121°58'0 0.1
2014-Jul-15 20:24N 38°51' E 121°58'0 0.0
2014-Jul-15 19:30N 38°51' E 121°58'0 0.0
2014-Jul-15 18:06N 38°51' E 121°58'0 0.0
2014-Jul-15 17:30N 38°51' E 121°58'0 0.0
2014-Jul-15 16:30N 38°51' E 121°58'0 0.0
2014-Jul-15 12:12N 38°51' E 121°58'0 0.1
2014-Jul-15 11:30N 38°52' E 121°58'0 0.0
2014-Jul-15 10:30N 38°52' E 121°58'0 0.1
2014-Jul-15 09:24N 38°51' E 121°58'0 0.0
2014-Jul-15 08:24N 38°51' E 121°58'2 2.5
2014-Jul-15 07:33N 38°50' E 121°56'1111.2
2014-Jul-15 06:33N 38°40' E 121°49'1211.9
2014-Jul-15 05:33N 38°31' E 121°39'1212.2
2014-Jul-15 04:34N 38°29' E 121°24'1312.3
2014-Jul-15 03:33N 38°28' E 121°08'15113.3
2014-Jul-14 16:11N 38°57' E 117°58'813.3
2014-Jul-14 15:33N 38°59' E 117°48'2 1.5
2014-Jul-14 14:25N 39°00' E 117°47'0 0.0
2014-Jul-14 13:31N 39°00' E 117°47'0 0.0
2014-Jul-14 12:31N 39°00' E 117°47'0 0.0
2014-Jul-14 11:31N 39°00' E 117°47'0 0.0
2014-Jul-14 10:31N 39°00' E 117°47'0 0.0
2014-Jul-14 09:25N 39°00' E 117°47'0 0.0
2014-Jul-14 08:31N 39°00' E 117°47'0 0.0
2014-Jul-14 07:31N 39°00' E 117°47'0 0.0
2014-Jul-14 06:31N 39°00' E 117°47'0 0.0
2014-Jul-14 05:31N 39°00' E 117°47'0 0.0
2014-Jul-14 04:25N 39°00' E 117°47'0 0.0
2014-Jul-14 03:25N 39°00' E 117°47'2 2.6
2014-Jul-14 02:33N 38°58' E 117°48'1211.8
2014-Jul-14 01:33N 38°56' E 118°03'4 2.1
2014-Jul-13 23:27N 38°52' E 118°06'0 0.0
2014-Jul-13 22:33N 38°52' E 118°06'0 0.0
2014-Jul-13 21:33N 38°52' E 118°06'0 0.1
2014-Jul-13 20:33N 38°52' E 118°06'0 0.2
2014-Jul-13 19:33N 38°52' E 118°06'0 0.1
2014-Jul-13 18:33N 38°52' E 118°06'0 0.0
2014-Jul-13 17:15N 38°52' E 118°06'0 0.1
2014-Jul-13 16:33N 38°52' E 118°06'0 0.1
2014-Jul-13 15:31N 38°52' E 118°06'0 0.2
2014-Jul-13 14:31N 38°52' E 118°06'0 0.0
2014-Jul-13 13:31N 38°52' E 118°06'0 0.0
2014-Jul-13 12:31N 38°52' E 118°06'0 0.0
2014-Jul-13 11:31N 38°52' E 118°06'0 0.0
2014-Jul-13 10:25N 38°52' E 118°06'0 0.1
2014-Jul-13 09:13N 38°52' E 118°06'0 0.1
2014-Jul-13 08:31N 38°52' E 118°06'0 0.0
2014-Jul-13 04:19N 38°52' E 118°06'0 0.1
2014-Jul-13 02:31N 38°52' E 118°06'  
Track history (hours):
 
Tides and Currents Weather Stations Pressure Air Temp Water Temp Dewpoint Dewpoint Depression Visibility Wind Speed Wind Dir Waves Ship Positions

Xin Dan Dong

Last reported at 2014-Jul-22 16:31 UTC. Time now 2014-Jul-22 23:34 UTC.
Position N 19°18' E 115°27'.

Length 263 m; draft 12.4 m.

Type: Cargo ship. MMSI: 413153000.

Date/timePositionNaut miles runAvg speedWind from/ knotsBaromVisibWave heightAir tempDewpointWater temp
2014-Jul-22 16:31N 19°18' E 115°27'23212.9
2014-Jul-21 22:32N 22°45' E 117°19'2912.0
2014-Jul-21 20:08N 23°10' E 117°34'1012.6
2014-Jul-21 19:22N 23°17' E 117°42'1313.0
2014-Jul-21 18:22N 23°26' E 117°52'1112.9
2014-Jul-21 17:33N 23°33' E 118°01'1312.9
2014-Jul-21 16:34N 23°41' E 118°11'1413.2
2014-Jul-21 15:32N 23°51' E 118°22'1313.7
2014-Jul-21 14:33N 24°00' E 118°32'1413.8
2014-Jul-21 13:33N 24°09' E 118°43'1413.7
2014-Jul-21 12:33N 24°19' E 118°54'1413.9
2014-Jul-21 11:32N 24°28' E 119°06'1313.5
2014-Jul-21 10:33N 24°37' E 119°17'30612.7
2014-Jul-20 10:30N 28°42' E 122°43'1212.8
2014-Jul-20 09:33N 28°54' E 122°47'1412.5
2014-Jul-20 08:24N 29°07' E 122°51'1112.4
2014-Jul-20 07:33N 29°18' E 122°54'1212.5
2014-Jul-20 06:33N 29°30' E 122°58'1312.5
2014-Jul-20 05:29N 29°42' E 123°03'1212.9
2014-Jul-20 04:33N 29°54' E 123°08'1312.9
2014-Jul-20 03:33N 30°06' E 123°11'1313.3
2014-Jul-20 02:33N 30°19' E 123°14'2713.3
2014-Jul-20 00:32N 30°46' E 123°14'36413.0
2014-Jul-18 20:33N 36°50' E 123°14'1414.0
2014-Jul-18 19:33N 37°04' E 123°13'1413.5
2014-Jul-18 18:33N 37°16' E 123°07'1313.2
2014-Jul-18 17:33N 37°27' E 122°58'1312.6
2014-Jul-18 16:33N 37°37' E 122°48'1212.2
2014-Jul-18 15:33N 37°48' E 122°40'1212.4
2014-Jul-18 14:33N 37°59' E 122°33'1312.5
2014-Jul-18 13:33N 38°09' E 122°24'1312.6
2014-Jul-18 12:33N 38°20' E 122°16'1312.8
2014-Jul-18 11:33N 38°31' E 122°08'1312.8
2014-Jul-18 10:33N 38°43' E 122°00'1312.6
2014-Jul-18 09:33N 38°55' E 121°57'3 0.1
2014-Jul-17 04:12N 38°58' E 121°56'6 9.0
2014-Jul-17 03:31N 38°52' E 121°58'1 0.4
2014-Jul-17 02:20N 38°52' E 121°58'0 0.1
2014-Jul-17 01:33N 38°52' E 121°58'0 0.0
2014-Jul-17 00:33N 38°52' E 121°58'0 0.1
2014-Jul-16 23:27N 38°52' E 121°58'0 0.1
2014-Jul-16 22:33N 38°51' E 121°58'0 0.2
2014-Jul-16 21:33N 38°51' E 121°58'0 0.1
2014-Jul-16 19:27N 38°51' E 121°58'0 0.0
2014-Jul-16 16:33N 38°51' E 121°58'0 0.1
2014-Jul-16 15:12N 38°51' E 121°58'0 0.3
2014-Jul-16 14:30N 38°52' E 121°58'0 0.1
2014-Jul-16 12:06N 38°52' E 121°58'0 0.1
2014-Jul-16 11:06N 38°52' E 121°58'0 0.1
2014-Jul-16 09:30N 38°51' E 121°58'0 0.0
2014-Jul-16 08:24N 38°51' E 121°58'0 0.0
2014-Jul-16 06:30N 38°51' E 121°58'0 0.0
2014-Jul-16 05:24N 38°51' E 121°58'0 0.0
2014-Jul-16 02:24N 38°51' E 121°58'0 0.1
2014-Jul-16 01:30N 38°52' E 121°58'0 0.2
2014-Jul-16 00:30N 38°52' E 121°58'0 0.0
2014-Jul-15 22:30N 38°52' E 121°58'0 0.1
2014-Jul-15 20:24N 38°51' E 121°58'0 0.0
2014-Jul-15 19:30N 38°51' E 121°58'0 0.0
2014-Jul-15 18:06N 38°51' E 121°58'0 0.0
2014-Jul-15 17:30N 38°51' E 121°58'0 0.0
2014-Jul-15 16:30N 38°51' E 121°58'0 0.0
2014-Jul-15 12:12N 38°51' E 121°58'0 0.1
2014-Jul-15 11:30N 38°52' E 121°58'0 0.0
2014-Jul-15 10:30N 38°52' E 121°58'0 0.1
2014-Jul-15 09:24N 38°51' E 121°58'0 0.0
2014-Jul-15 08:24N 38°51' E 121°58'2 2.5
2014-Jul-15 07:33N 38°50' E 121°56'1111.2
2014-Jul-15 06:33N 38°40' E 121°49'1211.9
2014-Jul-15 05:33N 38°31' E 121°39'1212.2
2014-Jul-15 04:34N 38°29' E 121°24'1312.3
2014-Jul-15 03:33N 38°28' E 121°08'15113.3
2014-Jul-14 16:11N 38°57' E 117°58'813.3
2014-Jul-14 15:33N 38°59' E 117°48'2 1.5
2014-Jul-14 14:25N 39°00' E 117°47'0 0.0
2014-Jul-14 13:31N 39°00' E 117°47'0 0.0
2014-Jul-14 12:31N 39°00' E 117°47'0 0.0
2014-Jul-14 11:31N 39°00' E 117°47'0 0.0
2014-Jul-14 10:31N 39°00' E 117°47'0 0.0
2014-Jul-14 09:25N 39°00' E 117°47'0 0.0
2014-Jul-14 08:31N 39°00' E 117°47'0 0.0
2014-Jul-14 07:31N 39°00' E 117°47'0 0.0
2014-Jul-14 06:31N 39°00' E 117°47'0 0.0
2014-Jul-14 05:31N 39°00' E 117°47'0 0.0
2014-Jul-14 04:25N 39°00' E 117°47'0 0.0
2014-Jul-14 03:25N 39°00' E 117°47'2 2.6
2014-Jul-14 02:33N 38°58' E 117°48'1211.8
2014-Jul-14 01:33N 38°56' E 118°03'4 2.1
2014-Jul-13 23:27N 38°52' E 118°06'0 0.0
2014-Jul-13 22:33N 38°52' E 118°06'0 0.0
2014-Jul-13 21:33N 38°52' E 118°06'0 0.1
2014-Jul-13 20:33N 38°52' E 118°06'0 0.2
2014-Jul-13 19:33N 38°52' E 118°06'0 0.1
2014-Jul-13 18:33N 38°52' E 118°06'0 0.0
2014-Jul-13 17:15N 38°52' E 118°06'0 0.1
2014-Jul-13 16:33N 38°52' E 118°06'0 0.1
2014-Jul-13 15:31N 38°52' E 118°06'0 0.2
2014-Jul-13 14:31N 38°52' E 118°06'0 0.0
2014-Jul-13 13:31N 38°52' E 118°06'0 0.0
2014-Jul-13 12:31N 38°52' E 118°06'0 0.0
2014-Jul-13 11:31N 38°52' E 118°06'0 0.0
2014-Jul-13 10:25N 38°52' E 118°06'0 0.1
2014-Jul-13 09:13N 38°52' E 118°06'0 0.1
2014-Jul-13 08:31N 38°52' E 118°06'0 0.0
2014-Jul-13 04:19N 38°52' E 118°06'0 0.1
2014-Jul-13 02:31N 38°52' E 118°06'  

Dump ship's entire track history